SL-8 R/B, 3048

Orbit data source: Space-Track

SL-8 R/B, 3048 is space debris in LEO originally from a launch on Thu, 23 Nov 1967 UTC launched from the Plesetsk Missile And Space Complex (PKMTR). Debris objects in space refer to the collection of defunct objects orbiting the Earth. Examples of debris include non-operational satellites, rocket bodies, and fragments generated from explosions, collisions, or faulty payload assembly.

Loading next visibility...
Identifier
3048, 1967-116B
Orbit
LEO
Country
Flag of CISCIS
Related business
Manufacturer
Yuzhnoe
Mission
Spacecraft
Bus & Motor
S3, Unknown motor
Mass
1,434 kg wet, 1,434 kg dry
Launch date (UTC)
1967-11-23 (58 years ago)
Launch vehicle
Unknown
Launch site
Plesetsk Missile And Space Complex (PKMTR)
Object type
Payload
Rocket body
Debris
Shape & HBR
Unknown
Radar Cross Section
Large (>1 m²)

Expand to show TLE details & history
Last TLE update: 12 hours ago

TLE from 12 hours ago
0 SL-8 R/B
1 03048U 67116B   25347.66341964  .00000762  00000-0  15394-3 0  9996
2 03048  74.0054 205.8632 0006796 356.2718  59.8256 14.63166585 78907
Epoch: 2025-12-13T15:55Z
TLE epoch observation values (Epoch: 2025-12-13T15:55:19.456Z)
Latitude
53.09577°
Longitude
-93.24275°
Altitude
688.885 km
Speed
7.519 km/s
True Right ascension
15h 12m 42s
True Declination
52° 55' 44"
Sunlit
Object was in daylight at epoch
Visualization orbit readout
Latitude
Unknown
Longitude
Unknown
Altitude
Unknown
Speed
Unknown
Apparent Right ascension
Unknown
Apparent Declination
Unknown
Sunlit
N/A
Visualization observer readout
Local Sidereal Time
02:40:27
Azimuth
Unknown
Elevation
Unknown
Doppler factor
Unknown
Orbital elements
Apogee altitude
685.362 km
Perigee altitude
675.767 km
Semi-major axis
7,058.702 km
Eccentricity
0.00068
Inclination
74.0054°
RAAN
205.8632°
Arg. of periapsis
356.2718°
True anomaly
59.89295°
Mean anomaly
59.8256°
Eccentric anomaly
59.85927°
Mean motion
3.65979 °/min
Orbital period
98.37 mins
BSTAR
0.00015394
Loading maneuver chart data...
Computing Atmospheric mass density...
Loading historical data...
Loading historical data...
Loading historical data...
Loading historical data...
Loading historical data...
Loading historical data...
Loading historical data...

Documentation

Showing up to 5 results
|